Lid_Strength_Index
3 4 4 4 4 4 4 5 5 5 5 4 4 4 3 2 3 2 5 3 3 1 1 2 3 3 4 3 2 3 7 8 9 8 8 5 6 4 3 5 4 3 4 3 1
3 3 4 4 4 4 4 4 5 5 5 5 5 4 4 3 2 4 1 -0 0 -0 4 3 4 3 5 4 3 5 7 8 6 5 6 5 5 5 5 5 5 5 3 2 2
2 2 2 3 3 3 4 4 4 5 5 5 5 4 4 3 5 5 -0 -1 -0 0 3 3 3 3 6 4 4 5 7 5 5 5 4 5 5 4 5 6 5 5 4 3 3
2 2 2 2 2 2 3 4 4 4 5 5 5 5 4 3 10 5 -1 -2 -1 2 3 3 3 4 6 6 4 7 5 5 5 4 5 5 4 5 5 4 3 3 3 3 3
2 2 2 2 2 2 3 3 3 4 4 5 5 5 4 7 8 3 -1 -1 2 3 4 3 5 5 6 5 5 6 5 5 4 4 4 4 5 5 5 3 3 3 3 3 3
1 2 2 2 2 2 3 3 3 3 4 4 4 5 6 11 5 2 1 2 3 4 4 3 4 4 5 5 5 5 5 5 5 5 5 6 5 5 4 3 4 4 4 3 3
2 2 2 2 2 3 3 3 3 4 3 2 3 3 5 9 4 2 3 4 4 4 5 3 3 4 4 5 4 5 6 6 6 5 6 5 7 7 4 4 5 4 4 3 3
2 2 2 2 2 2 3 4 4 3 2 2 2 1 8 5 2 4 4 4 4 3 3 2 2 3 4 3 5 6 6 9 6 6 5 6 8 5 4 5 5 5 4 4 3
3 2 2 2 2 3 3 4 4 2 1 2 1 3 6 3 5 3 3 6 5 4 3 3 3 4 4 6 7 7 9 9 8 5 6 6 7 5 4 5 5 5 5 4 4
4 3 3 2 2 3 4 4 2 2 1 0 1 4 4 6 3 2 1 2 5 6 5 4 5 6 6 7 11 9 9 8 9 7 6 7 7 5 4 5 5 5 5 5 4
4 4 3 3 3 3 3 2 5 3 4 4 5 5 5 3 2 2 2 3 2 5 8 7 8 9 8 6 6 7 8 8 7 6 7 7 7 6 5 5 5 5 5 5 4
4 4 3 3 3 4 3 7 8 7 9 4 4 4 2 1 4 3 2 4 4 7 6 8 10 8 7 6 7 7 8 8 7 6 7 7 7 5 5 5 5 5 5 5 4
4 4 3 3 3 3 5 6 4 5 7 5 3 4 4 3 5 5 3 3 5 7 6 8 8 7 8 7 8 8 8 8 8 7 6 7 8 7 5 5 5 5 4 4 4
4 4 3 3 3 3 5 3 2 4 9 8 6 5 3 4 6 3 2 3 5 7 6 7 5 7 7 8 7 9 7 7 8 9 11 7 12 8 6 6 5 5 5 4 4
4 4 3 4 3 4 3 2 2 4 18 8 6 2 3 5 5 5 2 3 6 6 6 8 7 7 9 9 6 8 6 7 7 8 9 9 11 8 6 7 6 4 4 4 4
3 3 3 4 3 2 1 1 2 11 17 10 7 6 6 5 5 5 4 3 3 6 6 6 5 5 6 6 6 5 7 7 8 8 12 10 10 10 8 7 6 5 4 4 4
3 3 3 3 6 1 -0 2 11 17 9 11 9 7 6 7 6 6 7 7 8 10 9 7 7 6 5 7 6 7 9 13 14 14 14 9 10 9 7 6 5 5 4 4 4
3 3 3 3 2 1 1 6 17 9 9 8 7 7 8 6 7 6 7 8 6 7 9 10 11 7 6 7 8 8 9 13 16 14 13 9 12 9 6 5 4 4 4 4 4
3 4 4 2 1 1 5 12 11 9 7 8 8 9 9 7 7 7 7 8 7 6 9 10 10 6 6 5 6 8 10 7 10 12 13 11 9 7 6 5 5 5 4 4 4
5 6 6 3 1 3 9 12 10 8 7 7 9 8 10 9 8 8 8 6 7 6 5 7 10 7 6 5 5 7 6 11 11 17 17 12 11 11 8 7 5 5 4 4 4
5 9 4 2 2 8 13 12 10 7 7 9 9 9 8 9 8 8 8 6 6 6 5 6 8 9 7 8 9 9 9 9 9 11 14 15 12 6 6 6 5 5 4 4 4
7 12 3 2 9 10 13 11 9 9 7 7 7 8 9 8 9 8 9 7 5 5 7 6 8 10 10 6 6 6 8 9 13 13 11 11 11 5 5 5 4 4 4 4 3
10 10 4 4 13 12 10 10 9 10 9 9 8 7 7 8 10 8 7 5 5 6 7 6 9 12 10 8 7 8 7 8 8 9 12 14 12 6 5 5 4 4 4 4 3
9 13 8 7 7 10 10 10 11 7 7 6 7 7 8 9 7 9 8 6 5 5 6 6 8 10 13 10 8 10 9 8 9 13 12 11 9 7 6 6 5 5 4 3 3
8 10 7 10 9 9 8 8 9 9 6 6 8 8 9 10 9 9 7 7 6 6 6 6 10 8 8 8 8 8 9 8 10 9 11 10 9 7 6 5 5 4 4 4 4
8 7 5 6 6 8 8 9 9 8 8 9 11 8 7 9 8 9 8 8 8 7 7 6 10 8 9 8 8 9 8 8 8 8 8 8 8 5 5 4 5 5 5 5 4
2 2 5 7 7 8 8 9 9 8 7 6 7 8 9 7 5 5 6 7 8 8 8 8 9 10 12 9 9 11 9 8 8 7 7 10 7 5 6 6 5 5 5 5 4